HDGA4: War Eagle Creek At Hindsville, AR

                                SHEF ID:       HDGA4     War Eagle Crk nr Hindsville,AR
STATION TYPE:

STAGE RIV-FLOW WTR-TEMP CONDUCT BAT-LOAD
ft cfs F umho/cm volt
Ccp-Rev Ccp-Rev Ccp-Rev Ccp-Rev Ccp-Rev
(America/Chicago)
11/26 00:00 1.94 281 56.39 ---- 10.96
11/26 01:00 1.95 283 56.01 ---- 10.95
11/26 02:00 1.95 283 55.69 ---- 10.94
11/26 03:00 1.95 283 55.36 ---- 10.93
11/26 04:00 1.95 283 55.06 ---- 10.93
11/26 05:00 1.95 283 54.72 ---- 10.92
11/26 06:00 1.95 283 54.45 ---- 10.91
11/26 07:00 1.94 281 54.16 ---- 10.89
11/26 08:00 1.93 278 53.91 ---- 10.89
11/26 09:00 1.93 278 53.65 ---- 10.91
11/26 10:00 1.92 276 53.37 ---- 11.22
11/26 11:00 1.91 274 53.26 ---- 11.09
11/26 12:00 1.90 271 53.37 ---- 11.25
11/26 13:00 1.89 269 53.78 ---- 11.17
11/26 14:00 1.88 266 54.16 ---- 11.18
11/26 15:00 1.87 264 54.61 ---- 11.15
11/26 16:00 1.86 261 54.70 ---- 11.19
11/26 17:00 1.85 259 54.43 ---- 11.12
11/26 18:00 1.84 257 54.14 ---- 11.06
11/26 19:00 1.83 254 53.94 ---- 11.02
11/26 20:00 1.82 252 53.78 ---- 10.97
11/26 21:00 1.81 250 53.62 ---- 10.93
11/26 22:00 1.80 247 53.40 ---- 10.92
11/26 23:00 1.78 243 53.17 ---- 10.90
Data processed at Thu 27Nov2025 05:13 GMT

NOTICE: If you are parsing this page

Please convert to using our Data API. Starting January 1st, 2026 we will be migrating to: https://water.usace.army.mil with modern pages rendered in JavaScript. You will no longer be able to scrape this page! CWMSDataAPI (CDA)

Timeseries IDs (TSIDs)

TSIDs used from left to right in the data table
HIND.Stage.Inst.1Hour.0.Ccp-Rev
HIND.Flow.Inst.1Hour.0.Ccp-Rev
HIND.Temp-Water.Inst.1Hour.0.Ccp-Rev
HIND.Cond.Inst.1Hour.0.Ccp-Rev
HIND.Volt-Battery Load.Inst.1Hour.0.Ccp-Rev

                            

All information presented herein is the property of the government of the United States of America and may be revised or deleted at any time without prior notice. Dissemination of this information without the expressed written consent of the Public Affairs Office, Tulsa District U.S. Army Corps of Engineers is strictly prohibited. These data are gathered electronically and, as presented, have NOT undergone any form of quality control. These data are NOT guaranteed to be valid or correct.